Regional Weather Roundup
Issued by NWS

Home | Current Version | Previous Version | Text Only | Print | Product List | Glossary On
Versions: 1 2 3 4 5 6 7 8 9 10 11 12 13 14 15 16 17 18 19 20 21 22 23 24 25 26 27 28 29 30 31 32 33 34 35 36 37 38 39 40 41 42 43 44 45 46 47 48 49 50
000
ASUS45 KBOU 191007
RWRCO

WEATHER ROUNDUP FOR COLORADO
NATIONAL WEATHER SERVICE DENVER/BOULDER CO
300 AM MST FRI DEC 19 2014

NOTE: "FAIR" INDICATES FEW OR NO CLOUDS BELOW 12000 FEET WITH NO
SIGNIFICANT WEATHER AND/OR OBSTRUCTIONS TO VISIBILITY.

COZ001>005-013-030-031-191100-
...NORTHWEST COLORADO...

CITY           SKY/WX    TMP DP  RH WIND       PRES   REMARKS
CRAIG          FOG       22  18  85 SW3       30.19R VSB 1/2
HAYDEN         CLOUDY    16  12  86 SW5       30.16R WCI   9
MEEKER         LGT SNOW  21  18  88 CALM      30.18R FOG
MOUNT WERNER   NOT AVBL
STEAMBOAT SPGS CLOUDY    18  16  92 CALM      30.15S
WALDEN         PTCLDY     0  -6  78 CALM      30.10F
$$

COZ006>008-011-191100-
...WEST CENTRAL VALLEYS...

CITY           SKY/WX    TMP DP  RH WIND       PRES   REMARKS
GRAND JUNCTION CLOUDY    31  28  89 SE5       30.20R WCI  26
MONTROSE       CLOUDY    32  30  92 CALM      30.20S
EAGLE          CLOUDY    21  21 100 CALM      30.20S
RIFLE          CLOUDY    29  25  85 CALM      30.19R
DELTA          MOCLDY    30  29  93 CALM      30.21R
NUCLA          CLOUDY    32  30  93 CALM      30.24R
$$

COZ017>023-064>068-191100-
...SOUTHWEST COLORADO...

CITY           SKY/WX    TMP DP  RH WIND       PRES   REMARKS
DURANGO        CLEAR     19  16  88 NE5       30.15S WCI  12
CORTEZ         CLEAR     19  16  88 CALM      30.19R
PAGOSA SPRINGS CLEAR     17  16  96 W3        30.15R
TELLURIDE      NOT AVBL
WOLF CREEK PAS CLEAR      7   5  92 MISG      30.08S
$$

COZ009-010-012-014-032>034-037-058>063-191100-
...CENTRAL COLORADO...

CITY           SKY/WX    TMP DP  RH WIND       PRES   REMARKS
ASPEN          FLURRIES  20  18  92 S3        30.13S
BUENA VISTA    PTCLDY    13   8  79 CALM      30.09F
COPPER MTN     CLOUDY    14   9  79 W17       30.05S WCI  -3
BERTHOUD PASS  CLOUDY     5   0  78 MISG      30.02F
COTTONWOOD PAS PTCLDY    23  10  58 NW9G17    30.06F WCI  13
GUNNISON       CLOUDY    16  10  79 CALM      30.18S
KREMMLING      CLOUDY    16  12  86 CALM      30.17S
LEADVILLE      CLOUDY     7   3  84 N8        30.07F WCI  -6
MONARCH PASS   CLOUDY    10   7  85 MISG      30.14S
SALIDA         PTCLDY    21  13  72 NW3       30.17F
SUNLIGHT       PTCLDY   N/A N/A N/A CALM      30.12S
WILKERSON PASS MOCLDY    12   5  73 NW8       30.05S WCI   1
$$

COZ069>075-191100-
...SAN LUIS VALLEY/SANGRE DE CRISTO MOUNTAINS...

CITY           SKY/WX    TMP DP  RH WIND       PRES   REMARKS
ALAMOSA        CLOUDY     7   5  91 W5        30.12S FOG     WCI  -2
LA VETA PASS   NOT AVBL
SAGUACHE       PTCLDY    21  14  73 NW12      30.12S WCI   9
$$

COZ035-036-038>040-191100-
...NORTHERN COLORADO FRONT RANGE...

CITY           SKY/WX    TMP DP  RH WIND       PRES   REMARKS
DENVER INTL AP PTCLDY    25  23  92 SW7       30.05F FOG     WCI  17
DMNS CITY PARK   N/A     24  23  98 W1        30.06F
AURORA         PTCLDY    25  23  93 SW5       30.05F WCI  19
FRONT RANGE AP CLEAR     28  28 100 W6        30.06F FOG     WCI  22
ERIE MUNI ARPT   N/A     19  18  94 CALM      30.07S
BOULDER MUN AP CLEAR     27  21  80 SW5       30.06S WCI  21
CENTENNIAL     PTCLDY    23  20  88 CALM      30.05S
BROOMFIELD     CLEAR     27  23  86 W3        30.06S
FORT COLLINS   CLEAR     19  18  93 W3        30.07F
LONGMONT       CLEAR     21  18  90 CALM      30.08F
$$

COZ041-046-047-076>085-087-088-191100-
...PIKES PEAK/PALMER DIVIDE AND SOUTHERN FOOTHILLS...

CITY           SKY/WX    TMP DP  RH WIND       PRES   REMARKS
COLO. SPRINGS  MOCLDY    29  23  78 SE3       30.08S
A. F. ACADEMY  PTCLDY    17  14  88 N7        30.06F WCI   8
ELLICOTT       NOT AVBL
FALCON         CLOUDY    26  24  94 CALM      30.07F
FORT CARSON    MOCLDY    25  20  82 NW6       30.06F WCI  18
LIMON          CLEAR     15  12  88 NE3       30.07F
MONUMENT HILL  CLEAR     21  19  93 SW6       30.03F WCI  14
TRINIDAD       MOCLDY    28  26  92 NE6       30.08F WCI  22
$$

COZ042>045-048>051-090-091-191100-
...NORTHEAST COLORADO...

CITY           SKY/WX    TMP DP  RH WIND       PRES   REMARKS
GREELEY ARPT   CLEAR     16   7  67 CALM      30.06F
AKRON          CLEAR     19  15  84 W10       30.06F WCI   7
BURLINGTON     CLEAR     21  17  84 W8        30.09F WCI  11
WRAY           CLEAR     20  16  86 W7        30.10S WCI  11
STERLING       CLEAR     14  12  92 SW5       30.08F FOG     WCI   6
HOLYOKE        NOT AVBL
FORT MORGAN    CLEAR     14  12  91 SW3       30.07S
$$

COZ086-089-092>099-191100-
...SOUTHEAST COLORADO...

CITY           SKY/WX    TMP DP  RH WIND       PRES   REMARKS
PUEBLO         CLEAR     19  16  88 W3        30.09F
LA JUNTA       MOCLDY    29  27  92 W7        30.09F WCI  22
LAMAR          PTCLDY    24  23  96 SW3       30.09F FOG
SPRINGFIELD      N/A     28  25  88 W5        30.08F WCI  23
$$


USA.gov is the U.S. government's official web portal to all federal, state and local government web resources and services.